Content
SEND FEEDBACK

Daily
Averages
Monthly
Summary
United Kingdom

BELFAST, NORTHERN IRELAND


Home > Europe > United Kingdom > Northern Ireland
Elevation: 16 feet     Latitude: 54 36N     Longitude: 005 53W

WEATHER
 
SELECT A DAY
Number of Records: 195,087;   Date Range: 7/1/96 - 12/20/14
 
SHARE

PRINT THIS DATA

[ ← Previous Day ]
WEATHER ALMANAC - NOVEMBER 29, 2013
[ Next Day → ]
[ °C ]   °F
Weather ElementAverageHighLow
Temperature46.2 °F48.2 °F (6:50 am)44.6 °F (5:20 pm)
Dewpoint39.1 °F42.8 °F (6:50 am)37.4 °F (9:50 am)
Humidity76.4 %82 % (6:50 am)71 % (9:50 am)
Barometer30.31 in30.33 in (8:20 am)30.27 in (1:50 pm)
Wind Speed14.9 mph25.3 mph (2:20 pm)
Wind Gust40.3 mph (2:20 pm)
Weather ElementAverage
Visibility6.2 mi
Wind DirectionWNW (295 °)

Weather ElementTotal
Precipitation---
Heating Degree Days18.6 (Base 65)
Averaged from 28 records on November 29, 2013
WEATHER CONDITIONS BREAKOUT
WIND DIRECTION BREAKOUT
WEATHER BY HOUR - NOVEMBER 29, 2013
[ °C ]   °F
Local TimeTemperatureDewpointHumidityBarometerVisibilityWind DirectionWind SpeedGust SpeedPrecipitationEventsConditions
6:50 AM48.2 °F42.8 °F82 %30.30 in6.2 miWNW (300°)16.1 mph29.9 mphMostly Cloudy
7:20 AM48.2 °F41.0 °F76 %30.30 in6.2 miWNW (290°)15.0 mphMostly Cloudy
7:50 AM46.4 °F41.0 °F81 %30.30 in6.2 miWNW (290°)17.3 mph29.9 mphScattered Clouds
8:20 AM46.4 °F39.2 °F76 %30.33 in6.2 miWNW (300°)18.4 mph31.1 mphMostly Cloudy
8:50 AM46.4 °F39.2 °F76 %30.33 in6.2 miWest (280°)16.1 mphScattered Clouds
9:20 AM46.4 °F39.2 °F76 %30.33 in6.2 miWest (280°)16.1 mphScattered Clouds
9:50 AM46.4 °F37.4 °F71 %30.33 in6.2 miWNW (290°)13.8 mphScattered Clouds
10:20 AM46.4 °F37.4 °F71 %30.33 in6.2 miWNW (290°)12.7 mphScattered Clouds
10:50 AM46.4 °F37.4 °F71 %30.33 in6.2 miWNW (290°)10.4 mphMostly Cloudy
11:20 AM46.4 °F37.4 °F71 %30.33 in6.2 miWest (280°)15.0 mphMostly Cloudy
11:50 AM46.4 °F39.2 °F76 %30.33 in6.2 miWest (280°)15.0 mphMostly Cloudy
12:20 PM46.4 °F39.2 °F76 %30.33 in6.2 miWest (280°)16.1 mphRainLight Rain Showers
12:50 PM46.4 °F39.2 °F76 %30.30 in6.2 miWNW (290°)15.0 mphRainLight Rain Showers
1:20 PM46.4 °F39.2 °F76 %30.30 in6.2 miWNW (290°)17.3 mphMostly Cloudy
1:50 PM46.4 °F37.4 °F71 %30.27 in6.2 miWNW (300°)24.2 mph38.0 mphMostly Cloudy
2:20 PM46.4 °F39.2 °F76 %30.27 in6.2 miNW (310°)25.3 mph40.3 mphRainLight Rain Showers
2:50 PM46.4 °F39.2 °F76 %30.27 in6.2 miNW (310°)21.9 mphRainLight Rain Showers
3:20 PM46.4 °F39.2 °F76 %30.27 in6.2 miNW (310°)19.6 mph31.1 mphMostly Cloudy
3:50 PM46.4 °F39.2 °F76 %30.30 in6.2 miNW (310°)18.4 mphMostly Cloudy
4:50 PM46.4 °F39.2 °F76 %30.30 in6.2 miWNW (300°)12.7 mphRainLight Rain Showers
5:20 PM44.6 °F39.2 °F81 %30.33 in6.2 miNW (310°)15.0 mphRainLight Rain Showers
5:50 PM46.4 °F39.2 °F76 %30.30 in6.2 miWNW (300°)15.0 mphRainLight Rain Showers
6:20 PM44.6 °F39.2 °F81 %30.33 in6.2 miWNW (300°)10.4 mphRainLight Rain Showers
6:50 PM46.4 °F39.2 °F76 %30.33 in6.2 miWNW (300°)8.1 mphRainRain Showers
7:20 PM44.6 °F39.2 °F81 %30.33 in6.2 miWest (260°)5.8 mphScattered Clouds
7:50 PM44.6 °F39.2 °F81 %30.33 in6.2 miWNW (300°)5.8 mphRainLight Rain Showers
8:20 PM46.4 °F39.2 °F76 %30.33 in6.2 miWNW (300°)9.2 mphPartly Cloudy
8:50 PM44.6 °F39.2 °F81 %30.33 in6.2 miNW (320°)11.5 mphPartly Cloudy
Hourly data recorded from EGAC, located miles away from Belfast, Northern Ireland







STORIES FROM OUR PARTNERS